EDT,Max TemperatureF,Mean TemperatureF,Min TemperatureF,Max Dew PointF,MeanDew PointF,Min DewpointF,Max Humidity, Mean Humidity, Min Humidity, Max Sea Level PressureIn, Mean Sea Level PressureIn, Min Sea Level PressureIn, Max VisibilityMiles, Mean VisibilityMiles, Min VisibilityMiles, Max Wind SpeedMPH, Mean Wind SpeedMPH, Max Gust SpeedMPH,PrecipitationIn, CloudCover, Events, WindDirDegrees
2013-6-1,87,78,68,70,66,61,100,72,43,30.16,30.11,30.04,10,10,7,12,5,17,0.00,2,,206
2013-6-2,87,78,68,70,65,61,100,69,40,30.09,30.00,29.91,10,10,10,15,7,21,0.00,3,Thunderstorm,206
2013-6-3,78,73,66,75,72,66,100,94,78,29.97,29.90,29.85,10,10,4,10,5,16,0.37,7,Thunderstorm,198
2013-6-4,80,71,62,70,64,59,100,77,51,30.11,30.02,29.93,10,10,4,13,3,18,0.00,4,,34
2013-6-5,82,71,60,64,57,48,100,61,32,30.15,30.09,30.02,10,10,10,9,2,,0.00,3,,88
2013-6-6,77,72,66,73,67,55,100,86,57,30.05,29.93,29.85,10,9,2,9,2,16,0.83,7,Thunderstorm,140
2013-6-7,78,73,68,75,71,68,100,97,78,29.86,29.68,29.47,10,8,2,13,3,22,2.01,8,Thunderstorm,177
2013-6-8,82,75,68,73,70,68,100,88,62,30.10,29.96,29.84,10,9,5,9,3,,0.26,5,,216
2013-6-9,86,76,66,77,70,66,100,85,55,30.17,30.12,30.07,10,8,0,15,1,25,0.00,3,Thunderstorm,171
2013-6-10,84,78,71,75,72,70,100,91,66,30.12,30.02,29.94,10,10,3,16,7,37,0.73,6,Thunderstorm,192
2013-6-11,86,77,68,72,66,63,100,74,45,29.98,29.93,29.90,10,10,10,9,5,,0.00,3,,242
2013-6-12,89,76,62,75,68,63,100,78,49,29.99,29.93,29.87,10,9,5,10,1,,0.00,0,,238
2013-6-13,95,82,68,75,71,59,100,78,34,29.87,29.74,29.60,10,10,7,16,3,23,0.09,1,Thunderstorm,227
2013-6-14,78,69,60,68,58,52,100,66,39,30.02,29.86,29.72,10,10,10,14,4,23,0.00,2,,351
2013-6-15,82,68,55,68,59,54,100,71,37,30.13,30.08,30.02,10,10,7,7,1,,0.00,1,,239
2013-6-16,86,73,60,64,61,55,100,65,45,30.15,30.08,30.02,10,10,10,14,4,20,0.00,1,,213
2013-6-17,86,77,68,72,66,63,89,70,51,30.06,30.01,29.94,10,10,10,15,6,18,0.00,2,,207
2013-6-18,84,76,69,72,70,68,100,85,62,29.99,29.88,29.76,10,10,3,14,6,24,0.50,6,Thunderstorm,212
2013-6-19,80,73,66,70,66,63,100,80,57,30.12,30.00,29.87,10,10,7,10,3,,0.01,3,Thunderstorm,36
2013-6-20,82,72,62,66,60,54,100,71,44,30.25,30.20,30.12,10,10,7,10,3,17,0.00,1,,39
2013-6-21,82,68,55,68,60,52,100,72,41,30.25,30.22,30.18,10,10,5,12,3,16,0.00,1,,34
2013-6-22,77,73,69,73,70,68,100,95,74,30.21,30.17,30.12,10,9,4,12,5,16,0.21,7,Thunderstorm,37
2013-6-23,86,78,69,75,72,68,100,88,55,30.22,30.18,30.14,10,10,4,6,1,,0.13,6,Thunderstorm,182
2013-6-24,86,78,69,77,72,70,100,89,58,30.22,30.17,30.11,10,10,2,8,1,,0.02,4,Thunderstorm,216
2013-6-25,87,78,68,73,71,68,100,89,58,30.14,30.09,30.03,10,10,2,10,3,16,0.04,3,Thunderstorm,214
2013-6-26,87,78,68,73,70,64,100,86,58,30.04,29.98,29.91,10,10,7,14,3,20,0.10,2,Thunderstorm,204
2013-6-27,87,78,68,73,71,68,100,89,58,29.92,29.83,29.74,10,10,7,13,4,25,0.02,3,Thunderstorm,210
2013-6-28,89,80,71,73,72,64,100,83,55,29.76,29.68,29.59,10,10,7,12,5,20,0.08,4,Thunderstorm,209
2013-6-29,86,77,68,73,71,68,100,86,62,29.76,29.68,29.62,10,10,1,10,2,,0.42,5,Thunderstorm,199
2013-6-30,84,78,71,73,72,70,100,87,66,29.88,29.80,29.74,10,10,2,13,5,22,0.81,7,Thunderstorm,175